Burlington, CO

8:07 PM MDT on September 26, 2016 (GMT -0600)
Kit Carson County

Weather History for KITR - May, 2014

Change the Weather History Date:

Sunday, May 11, 2014

  Actual Average Record
Temperature  
Mean Temperature 45 °F 57 °F  
Max Temperature 56 °F 71 °F 93 °F (1963)
Min Temperature 33 °F 43 °F 27 °F (2008)
Degree Days  
Heating Degree Days 20    
Moisture  
Dew Point 38 °F    
Average Humidity 81    
Maximum Humidity 93    
Minimum Humidity 45    
Precipitation  
Precipitation 0.21 in 0.07 in 0.54 in (1947)
Month to date precipitation 0.21 0.86  
Year to date precipitation 1.55 4.01  
Sea Level Pressure  
Sea Level Pressure 29.72 in    
Wind  
Wind Speed 22 mph (North)    
Max Wind Speed 30 mph    
Max Gust Speed 41 mph    
Visibility 8 miles    
Events Rain , Snow , Thunderstorm    
T = Trace of Precipitation, MM = Missing Value Source: NWS Daily Summary

Daily Weather History Graph

Daily Weather History Graph

Search for Another Location

Airport or City:

Trip Planner

Search our weather history database for the weather conditions in past years. The results will help you decide how hot, cold, wet, or windy it might be!

Date:

Astronomy

May. 11, 2014 Rise Set
Actual Time 5:39 AM MDT 7:52 PM MDT
Civil Twilight 5:09 AM MDT 8:21 PM MDT
Nautical Twilight 4:33 AM MDT 8:58 PM MDT
Astronomical Twilight 3:53 AM MDT 9:38 PM MDT
Moon 4:51 PM MDT (5/11) 3:44 AM MDT (5/11)
Length of Visible Light 15h 12m
Length of Day
14h 12m
Waxing Gibbous, 89% of the Moon is Illuminated
May 11
Waxing Gibbous
May 14
Full
May 21
Last Quarter
May 28
New
Jun 5
First Quarter

Hourly Weather History & Observations

Time (MDT) Temp. Windchill Dew Point Humidity Pressure Visibility Wind Dir Wind Speed Gust Speed Precip Events Conditions
12:53 AM 57.0 °F - 36.0 °F 45% 29.56 in 10.0 mi ENE 29.9 mph 39.1 mph N/A   Partly Cloudy
1:53 AM 51.1 °F - 41.0 °F 68% 29.55 in 10.0 mi NE 19.6 mph - N/A   Clear
2:53 AM 50.0 °F - 39.0 °F 66% 29.51 in 10.0 mi ENE 20.7 mph - N/A   Clear
3:53 AM 48.0 °F - 39.0 °F 71% 29.52 in 10.0 mi NNE 17.3 mph - N/A   Clear
4:21 AM 50.0 °F - 39.9 °F 68% 29.65 in 10.0 mi NNE 17.3 mph - N/A   Overcast
4:53 AM 51.1 °F - 39.0 °F 63% 29.52 in 10.0 mi NNE 19.6 mph - N/A   Overcast
5:53 AM 51.1 °F - 39.0 °F 63% 29.52 in 10.0 mi NNE 18.4 mph - N/A   Overcast
6:53 AM 50.0 °F - 41.0 °F 71% 29.58 in 10.0 mi North 17.3 mph - N/A   Overcast
7:53 AM 52.0 °F - 39.9 °F 63% 29.59 in 10.0 mi NNE 20.7 mph - N/A   Overcast
8:53 AM 52.0 °F - 41.0 °F 66% 29.59 in 10.0 mi NNE 23.0 mph - N/A   Overcast
9:53 AM 51.1 °F - 43.0 °F 74% 29.61 in 10.0 mi NNE 25.3 mph - N/A   Overcast
10:01 AM 51.1 °F - 43.0 °F 74% 29.71 in 10.0 mi NNE 24.2 mph - N/A   Overcast
10:53 AM 50.0 °F - 43.0 °F 77% 29.63 in 10.0 mi NNE 23.0 mph - N/A   Overcast
11:53 AM 48.9 °F - 42.1 °F 77% 29.66 in 9.0 mi NNE 18.4 mph - N/A   Overcast
12:53 PM 48.0 °F - 44.1 °F 86% 29.66 in 3.0 mi NNE 18.4 mph - N/A   Overcast
1:10 PM 46.9 °F - 44.1 °F 90% 29.74 in 2.0 mi North 24.2 mph - 0.00 in Rain Light Rain
1:53 PM 46.9 °F - 44.1 °F 90% 29.69 in 3.0 mi North 19.6 mph 28.8 mph 0.00 in   Overcast
2:53 PM 45.0 °F 36.4 °F 42.1 °F 90% 29.74 in 2.5 mi North 23.0 mph 29.9 mph 0.00 in Rain Light Rain
3:51 PM 42.8 °F 33.5 °F 39.2 °F 87% 29.80 in 5.0 mi North 23.0 mph 31.1 mph 0.00 in   Overcast
3:53 PM 43.0 °F 34.0 °F 39.9 °F 89% 29.76 in 5.0 mi North 21.9 mph 31.1 mph 0.00 in   Overcast
4:53 PM 41.0 °F 30.2 °F 37.9 °F 89% 29.78 in 10.0 mi North 27.6 mph 34.5 mph 0.00 in   Overcast
5:24 PM 41.0 °F 31.1 °F 37.9 °F 89% 29.82 in 10.0 mi North 23.0 mph 36.8 mph N/A   Overcast
5:36 PM 39.9 °F 29.0 °F 37.0 °F 89% 29.84 in 10.0 mi NNW 26.5 mph 34.5 mph N/A   Overcast
5:53 PM 39.0 °F 27.4 °F 36.0 °F 89% 29.79 in 10.0 mi NNW 28.8 mph 35.7 mph N/A   Overcast
6:53 PM 37.9 °F 26.1 °F 35.1 °F 89% 29.82 in 10.0 mi North 27.6 mph 41.4 mph 0.00 in   Overcast
7:53 PM 37.0 °F 24.9 °F 35.1 °F 93% 29.83 in 8.0 mi North 27.6 mph 40.3 mph 0.01 in Snow Light Snow
8:53 PM 36.0 °F 24.7 °F 33.1 °F 89% 29.87 in 10.0 mi North 21.9 mph 35.7 mph 0.03 in   Overcast
9:53 PM 35.1 °F 24.5 °F 33.1 °F 92% 29.87 in 10.0 mi NNW 18.4 mph 32.2 mph 0.01 in   Overcast
10:53 PM 35.1 °F 24.8 °F 33.1 °F 92% 29.94 in 10.0 mi NNW 17.3 mph 25.3 mph N/A   Overcast
11:18 PM 33.1 °F 21.9 °F 30.9 °F 92% 29.92 in 2.0 mi NNW 18.4 mph 28.8 mph 0.02 in Snow , Thunderstorm Light Snow
11:31 PM 33.1 °F 22.6 °F 30.9 °F 92% 29.95 in 3.0 mi NNW 16.1 mph - 0.02 in Snow , Thunderstorm Light Thunderstorms and Snow
11:41 PM 33.1 °F 21.9 °F 30.9 °F 92% 29.91 in 3.0 mi NNW 18.4 mph 26.5 mph 0.05 in Snow Light Snow
11:53 PM 33.1 °F 21.2 °F 30.9 °F 92% 29.99 in 3.0 mi NW 20.7 mph 25.3 mph 0.05 in Snow , Thunderstorm Light Thunderstorms and Snow